Other Surface Observations
Issued by NWS Charleston, SC

Home | Current Version | Previous Version | Text Only | Print | Product List | Glossary On
Versions: 1 2 3 4 5 6 7 8 9 10 11 12 13 14 15 16 17 18 19 20 21 22 23 24 25 26 27 28 29 30 31 32 33 34 35 36 37 38 39 40 41 42 43 44 45 46 47 48 49 50
101
SXUS52 KCHS 271427
OSOCHS

MARINE OBSERVATIONS
NATIONAL WEATHER SERVICE CHARLESTON SC
1000 AM EDT TUE JUN 27 2017

...DOWNTOWN CHARLESTON AND HARBOR...

CITY           SKY/WX    TMP DP  RH WIND       PRES   REMARKS
WATERFRONT PRK   N/A     81  69  67 VRB3      30.02R

...LAKE MOULTRIE...

CITY           SKY/WX    TMP DP  RH WIND       PRES   REMARKS
PINOPOLIS        N/A     79  70  73 CALM      29.98R

...LAKE AND SUPPLEMENTAL COASTAL OBSERVATIONS...

STATION/POSITION TIME  TEMP    WIND        PRES    WAVE   SWELL
                       AIR SEA DIR/SP/G            HT/PER HT/PER/DIR
                 (UTC) (F)     (DEG/KT/KT) (MB)    (FT/S) (FT/S/D)
FORT PULASKI     1400   80 83   50/  5/  7 1017.4
SAPELO ISLAND    1400   81      40/  6     1017.0
WINYAH BAY       1345   78     310/  3     1017.0S
LAKE MURRAY      1420   77     320/  4/  8 1016.9R
ACE BASIN NERRS  1345   82      20/  1     1018.0R


...C-MAN AND BUOY OBSERVATIONS...

STATION/POSITION TIME  TEMP    WIND        PRES    WAVE   SWELL
                       AIR SEA DIR/SP/G            HT/PER HT/PER/DIR
                 (UTC) (F)     (DEG/KT/KT) (MB)    (FT/S) (FT/S/D)
BUOY 41004       1410   79 81   40/  8/ 10 1016.5
BUOY 41008       1350   77 81   50/  8/ 10 1016.3F   1/ 8   2/140/ 8
FOLLY BEACH CMAN 1400   81      10/  5/  6 1017.9R
CAPERS NS BUOY   1408   85 83   20/  8/ 12 1017.0F
FRIPP NS BUOY    1408   80 83   60/  6/  8 1016.5F
5E ST. MARYS GA  1400      80                N/A     2/ 8


STATION/POSITION TIME  TEMP    WIND        PRES    WAVE   SWELL
                       AIR SEA DIR/SP/G            HT/PER HT/PER/DIR
                 (UTC) (F)     (DEG/KT/KT) (MB)    (FT/S) (FT/S/D)
FRYING PAN BUOY  1410   78 80  350/  8/  8 1016.9
BUOY 41025       1350   78 81  350/  8/ 10 1016.4R   2/ 7   2/ 80/ 7
CAPE LOOKOUT NC  1400   78     320/  5/  7 1016.4S
BUOY 41002       1350   78 80  260/ 12/ 14 1017.2R   4/ 5   2/220/ 6
BUOY 41010       1410   83 83  210/ 12/ 16 1016.5
ST AUGUSTINE FL  1400   78 78  330/  6/  8 1017.0S

$$




USA.gov is the U.S. government's official web portal to all federal, state and local government web resources and services.